When you browse on this site, cookies collect data to enhance your experience and personalize the content and advertising you see.
Visit our Privacy Policy to learn more. By continuing to use the site, you agree to this use of cookies and data.
  • In Romania
  • List of Countries
  • For 7 days
  • Water Temperature
  • Satellite Maps
  • Weather Map
  • Weather Widgets
  • user-avatar
    Login

    Hourly Weather Saint-Leu-la-Foret

    Today, 20 June, Thursday

    Time Temperature Precipitation Wind Pressure Humidity
    00:00 +16°C° 0 mm 1 mps 750 mmHg 81%
    01:00 +16°C° 0 mm 1 mps 750 mmHg 82%
    02:00 +16°C° 0 mm 1 mps 750 mmHg 84%
    03:00 +15°C° 0 mm 1 mps 750 mmHg 85%
    04:00 +16°C° 0 mm 2 mps 750 mmHg 85%
    05:00 +16°C° 0 mm 2 mps 751 mmHg 85%
    06:00 +16°C° 0 mm 3 mps 751 mmHg 88%
    07:00 +16°C° 0.1 mm 3 mps 752 mmHg 86%
    08:00 +16°C° 0.1 mm 3 mps 752 mmHg 84%
    09:00 +16°C° 0.1 mm 3 mps 752 mmHg 82%
    10:00 +18°C° 0 mm 3 mps 752 mmHg 73%
    11:00 +19°C° 0 mm 4 mps 753 mmHg 64%
    12:00 +21°C° 0 mm 4 mps 753 mmHg 55%
    13:00 +21°C° 0 mm 4 mps 753 mmHg 53%
    14:00 +21°C° 0 mm 4 mps 753 mmHg 52%
    15:00 +21°C° 0 mm 4 mps 753 mmHg 50%
    16:00 +21°C° 0 mm 4 mps 753 mmHg 53%
    17:00 +20°C° 0 mm 3 mps 753 mmHg 55%
    18:00 +20°C° 0 mm 3 mps 753 mmHg 58%
    19:00 +18°C° 0 mm 3 mps 754 mmHg 63%
    20:00 +17°C° 0 mm 2 mps 754 mmHg 69%
    21:00 +16°C° 0 mm 2 mps 754 mmHg 74%
    22:00 +15°C° 0 mm 2 mps 755 mmHg 76%
    23:00 +14°C° 0 mm 1 mps 755 mmHg 77%

    Tomorrow, 21 June, Friday

    Time Temperature Precipitation Wind Pressure Humidity
    00:00 +14°C° 0 mm 1 mps 755 mmHg 79%
    01:00 +13°C° 0 mm 1 mps 755 mmHg 80%
    02:00 +13°C° 0 mm 1 mps 755 mmHg 81%
    03:00 +12°C° 0 mm 1 mps 755 mmHg 82%
    04:00 +13°C° 0 mm 1 mps 756 mmHg 80%
    05:00 +14°C° 0 mm 1 mps 756 mmHg 78%
    06:00 +14°C° 0 mm 1 mps 756 mmHg 76%
    07:00 +16°C° 0 mm 1 mps 756 mmHg 68%
    08:00 +18°C° 0 mm 1 mps 757 mmHg 61%
    09:00 +19°C° 0 mm 2 mps 757 mmHg 53%
    10:00 +20°C° 0 mm 2 mps 757 mmHg 51%
    11:00 +21°C° 0 mm 2 mps 757 mmHg 48%
    12:00 +21°C° 0 mm 3 mps 757 mmHg 45%
    13:00 +21°C° 0 mm 3 mps 757 mmHg 47%
    14:00 +21°C° 0 mm 3 mps 756 mmHg 49%
    15:00 +21°C° 0 mm 4 mps 756 mmHg 51%
    16:00 +21°C° 0 mm 4 mps 756 mmHg 54%
    17:00 +20°C° 0 mm 4 mps 756 mmHg 58%
    18:00 +19°C° 0 mm 4 mps 756 mmHg 61%
    19:00 +18°C° 0 mm 4 mps 757 mmHg 66%
    20:00 +16°C° 0 mm 3 mps 757 mmHg 70%
    21:00 +14°C° 0 mm 3 mps 757 mmHg 75%
    22:00 +13°C° 0 mm 3 mps 757 mmHg 75%
    23:00 +12°C° 0 mm 3 mps 757 mmHg 76%

    Day after tomorrow, 22 June, Saturday

    Time Temperature Precipitation Wind Pressure Humidity
    00:00 +13°C° 0 mm 2 mps 757 mmHg 76%
    01:00 +12°C° 0 mm 2 mps 757 mmHg 78%
    02:00 +12°C° 0 mm 2 mps 757 mmHg 79%
    03:00 +12°C° 0 mm 2 mps 756 mmHg 81%
    04:00 +12°C° 0 mm 2 mps 756 mmHg 79%
    05:00 +12°C° 0 mm 3 mps 756 mmHg 76%
    06:00 +12°C° 0 mm 3 mps 756 mmHg 74%
    07:00 +14°C° 0 mm 3 mps 756 mmHg 70%
    08:00 +17°C° 0 mm 3 mps 756 mmHg 65%
    09:00 +19°C° 0 mm 3 mps 756 mmHg 60%
    10:00 +21°C° 0 mm 3 mps 756 mmHg 56%
    11:00 +22°C° 0 mm 3 mps 756 mmHg 53%
    12:00 +25°C° 0 mm 3 mps 755 mmHg 49%
    13:00 +25°C° 0 mm 3 mps 755 mmHg 49%
    14:00 +25°C° 0 mm 3 mps 755 mmHg 50%
    15:00 +26°C° 0 mm 3 mps 754 mmHg 50%
    16:00 +25°C° 0 mm 3 mps 754 mmHg 54%
    17:00 +25°C° 0 mm 3 mps 754 mmHg 58%
    18:00 +24°C° 0 mm 3 mps 754 mmHg 62%
    19:00 +23°C° 0 mm 2 mps 754 mmHg 67%
    20:00 +21°C° 0 mm 2 mps 754 mmHg 72%
    21:00 +20°C° 0 mm 2 mps 754 mmHg 77%
    22:00 +19°C° 0 mm 2 mps 754 mmHg 79%
    23:00 +19°C° 0 mm 2 mps 754 mmHg 82%

    23 June, Sunday

    Time Temperature Precipitation Wind Pressure Humidity
    00:00 +18°C° 0 mm 2 mps 754 mmHg 84%
    01:00 +18°C° 0 mm 2 mps 754 mmHg 85%
    02:00 +17°C° 0 mm 2 mps 753 mmHg 86%
    03:00 +17°C° 0 mm 2 mps 753 mmHg 87%
    04:00 +18°C° 0 mm 2 mps 753 mmHg 86%
    05:00 +18°C° 0 mm 2 mps 753 mmHg 84%
    06:00 +19°C° 0 mm 2 mps 753 mmHg 83%
    07:00 +20°C° 0 mm 3 mps 753 mmHg 77%
    08:00 +22°C° 0 mm 3 mps 753 mmHg 71%
    09:00 +23°C° 0 mm 4 mps 753 mmHg 65%
    10:00 +25°C° 0 mm 4 mps 753 mmHg 61%
    11:00 +27°C° 0 mm 4 mps 753 mmHg 57%
    12:00 +28°C° 0 mm 4 mps 753 mmHg 52%
    13:00 +28°C° 0 mm 4 mps 753 mmHg 53%
    14:00 +28°C° 0 mm 4 mps 753 mmHg 54%
    15:00 +28°C° 0 mm 4 mps 752 mmHg 55%
    16:00 +28°C° 0 mm 4 mps 752 mmHg 58%
    17:00 +28°C° 0 mm 4 mps 752 mmHg 62%
    18:00 +27°C° 0 mm 3 mps 752 mmHg 65%
    19:00 +26°C° 0 mm 3 mps 752 mmHg 70%
    20:00 +25°C° 0 mm 3 mps 752 mmHg 75%
    21:00 +24°C° 0 mm 2 mps 753 mmHg 80%
    22:00 +22°C° 0 mm 3 mps 753 mmHg 82%
    23:00 +22°C° 0 mm 3 mps 753 mmHg 83%

    24 June, Monday

    Time Temperature Precipitation Wind Pressure Humidity
    00:00 +21°C° 0 mm 3 mps 752 mmHg 85%
    01:00 +21°C° 0 mm 2 mps 752 mmHg 85%
    02:00 +20°C° 0 mm 2 mps 752 mmHg 86%
    03:00 +20°C° 0 mm 2 mps 752 mmHg 86%
    04:00 +22°C° 0 mm 1 mps 753 mmHg 84%
    05:00 +22°C° 0 mm 1 mps 753 mmHg 81%
    06:00 +23°C° 0 mm 1 mps 753 mmHg 78%
    07:00 +25°C° 0.1 mm 1 mps 754 mmHg 70%
    08:00 +26°C° 0.1 mm 1 mps 754 mmHg 63%
    09:00 +28°C° 0.1 mm 1 mps 754 mmHg 56%
    10:00 +30°C° 0 mm 2 mps 754 mmHg 52%
    11:00 +31°C° 0 mm 2 mps 754 mmHg 49%
    12:00 +33°C° 0 mm 3 mps 754 mmHg 45%
    13:00 +33°C° 0 mm 3 mps 754 mmHg 46%
    14:00 +34°C° 0 mm 4 mps 754 mmHg 47%
    15:00 +34°C° 0 mm 4 mps 754 mmHg 48%
    16:00 +33°C° 0 mm 4 mps 754 mmHg 52%
    17:00 +31°C° 0 mm 3 mps 754 mmHg 57%
    18:00 +30°C° 0 mm 3 mps 754 mmHg 61%
    19:00 +29°C° 0 mm 3 mps 754 mmHg 68%
    20:00 +28°C° 0 mm 3 mps 754 mmHg 74%
    21:00 +27°C° 0 mm 3 mps 754 mmHg 80%
    22:00 +26°C° 0 mm 3 mps 754 mmHg 81%
    23:00 +25°C° 0 mm 3 mps 754 mmHg 81%

    25 June, Tuesday

    Time Temperature Precipitation Wind Pressure Humidity
    00:00 +25°C° 0 mm 3 mps 754 mmHg 82%
    01:00 +24°C° 0 mm 3 mps 753 mmHg 82%
    02:00 +24°C° 0 mm 3 mps 753 mmHg 82%
    03:00 +22°C° 0 mm 3 mps 753 mmHg 82%
    04:00 +24°C° 0 mm 3 mps 753 mmHg 80%
    05:00 +24°C° 0 mm 3 mps 753 mmHg 77%
    06:00 +25°C° 0 mm 3 mps 753 mmHg 74%
    07:00 +26°C° 0 mm 3 mps 753 mmHg 69%
    08:00 +28°C° 0 mm 3 mps 753 mmHg 63%
    09:00 +29°C° 0 mm 3 mps 753 mmHg 58%
    10:00 +31°C° 0 mm 3 mps 753 mmHg 53%
    11:00 +33°C° 0 mm 3 mps 754 mmHg 48%
    12:00 +35°C° 0 mm 3 mps 754 mmHg 44%
    13:00 +35°C° 0 mm 3 mps 754 mmHg 43%
    14:00 +36°C° 0 mm 3 mps 754 mmHg 41%
    15:00 +36°C° 0 mm 3 mps 754 mmHg 40%
    16:00 +35°C° 0 mm 3 mps 754 mmHg 44%
    17:00 +35°C° 0 mm 2 mps 754 mmHg 47%
    18:00 +34°C° 0 mm 2 mps 755 mmHg 51%
    19:00 +31°C° 0 mm 2 mps 755 mmHg 55%
    20:00 +29°C° 0 mm 1 mps 755 mmHg 60%
    21:00 +27°C° 0 mm 1 mps 756 mmHg 65%
    22:00 +27°C° 0 mm 1 mps 756 mmHg 67%
    23:00 +26°C° 0 mm 1 mps 756 mmHg 70%
    Show more